Regional Weather Roundup
Issued by NWS

Home | Current Version | Previous Version | Text Only | Print | Product List | Glossary Off
Versions: 1 2 3 4 5 6 7 8 9 10 11 12 13 14 15 16 17 18 19 20 21 22 23 24 25 26 27 28 29 30 31 32 33 34 35 36 37 38 39 40 41 42 43 44 45 46 47 48 49 50

000
ASUS43 KLMK 230202
RWRKY
KENTUCKY REGIONAL WEATHER ROUNDUP
NATIONAL WEATHER SERVICE LOUISVILLE KY
1000 PM EDT MON SEP 22 2014

NOTE "FAIR" INDICATES FEW OR NO CLOUDS BELOW 12,000 FEET
WITH NO SIGNIFICANT WEATHER AND/OR OBSTRUCTIONS TO VISIBILITY.

KYZ001>023-026-027-061>063-070>075-230300-
WESTERN AND SOUTH CENTRAL KENTUCKY

CITY           SKY/WX    TMP DP  RH WIND       PRES   REMARKS
PADUCAH        CLEAR     57  49  74 CALM      30.22R
HENDERSON      CLEAR     52  46  82 CALM      30.25R
OWENSBORO      CLEAR     61  49  64 CALM      30.24S
HOPKINSVILLE   CLEAR     56  45  66 N5        30.22R
BOWLING GREEN  CLEAR    N/A N/A N/A CALM      30.23R
GLASGOW        NOT AVBL
$$

KYZ024-025-028>034-038-045-046-053-230300-
NORTH CENTRAL KENTUCKY

CITY           SKY/WX    TMP DP  RH WIND       PRES   REMARKS
LOUISVILLE/SDF CLEAR     60  45  57 N6        30.24R
LOUISVILLE/LOU CLEAR     57  47  69 CALM      30.25R
FORT KNOX      CLEAR     53  46  78 NE3       30.23S
$$

KYZ035>037-039>044-047>052-055>060-089>105-230300-
NORTHEAST KENTUCKY

CITY           SKY/WX    TMP DP  RH WIND       PRES   REMARKS
LEXINGTON      CLEAR     56  44  64 NE6       30.25R
COVINGTON      CLEAR     50  42  74 CALM      30.25R
FRANKFORT      CLEAR     51  46  83 CALM      30.24R
$$

KYZ054-064>069-076>088-106>120-230300-
SOUTHEAST KENTUCKY

CITY           SKY/WX    TMP DP  RH WIND       PRES   REMARKS
JACKSON        CLEAR     58  45  62 N3        30.25R
LONDON         CLEAR     55  47  74 N3        30.25R
SOMERSET       CLEAR     54  43  66 N3        30.25R
MIDDLESBORO    CLEAR     53  51  92 CALM      30.24R
MONTICELLO     CLEAR     49  47  93 CALM      30.25R
$$




USA.gov is the U.S. government's official web portal to all federal, state and local government web resources and services.